Lacrosse 4 Rocket - Orbit

View from above orbital plane
View from above orbital plane
View from above satellite
View from above satellite

Ground track
Ground track

The orbit data is extracted from the following two-line orbital elements,

1 26474U 00047B   13144.80982631  .00002065  00000-0  21141-3 0  3106
2 26474 067.9979 325.0296 0060852 154.4687 205.9481 14.91279303693674
Epoch (UTC): 24 May 2013 19:26:08
Eccentricity: 0.0060852
inclination: 67.9979°
perigee height: 551 km
apogee height: 636 km
right ascension of ascending node: 325.0296°
argument of perigee: 154.4687°
revolutions per day: 14.91279303
mean anomaly at epoch: 205.9481°
orbit number at epoch: 69367

The dashed part of the orbit path shows where the satellite is in the earth's shadow,  

Developed and maintained by Chris Peat, Heavens-Above GmbH. Please read the updated FAQ before sending e-mail. Imprint. DLR